N9522S KCAK-KCAK

Flight info

Callsign N9522S
Flight time N/A
Altitude 3000
Route KCAK KCLE KBKL KCAK
Aircraft C172/L-V/N

Departure

Time 2026-04-19 22:39
Airport Akron Canton Regional Airport (KCAK)

Arrival

Time N/A
Airport Akron Canton Regional Airport (KCAK)
Time Latitude Longitude Altitude Speed Heading
2026-04-19 22:20 40.91912 -81.43508 1228 ft 0 kts 32°
2026-04-19 22:25 40.91912 -81.43507 1228 ft 0 kts 31°
2026-04-19 22:25 40.91921 -81.43501 1228 ft 4 kts 28°
2026-04-19 22:25 40.91970 -81.43465 1229 ft 12 kts 30°
2026-04-19 22:25 40.91984 -81.43450 1229 ft 5 kts 84°
2026-04-19 22:26 40.91932 -81.43448 1229 ft 0 kts 261°
2026-04-19 22:26 40.91931 -81.43462 1229 ft 0 kts 269°
2026-04-19 22:31 40.91931 -81.43465 1229 ft 0 kts 272°
2026-04-19 22:37 40.91936 -81.43477 1229 ft 10 kts 320°
2026-04-19 22:37 40.91987 -81.43572 1228 ft 19 kts 248°
2026-04-19 22:38 40.91847 -81.43823 1221 ft 57 kts 227°
2026-04-19 22:38 40.91517 -81.44294 1326 ft 75 kts 225°
2026-04-19 22:38 40.91098 -81.44760 1506 ft 81 kts 218°
2026-04-19 22:38 40.90618 -81.45184 1700 ft 85 kts 217°
2026-04-19 22:39 40.90112 -81.45614 1903 ft 86 kts 217°
2026-04-19 22:39 40.89682 -81.46140 2130 ft 84 kts 227°
2026-04-19 22:39 40.89264 -81.46692 2341 ft 84 kts 227°
2026-04-19 22:39 40.88865 -81.47259 2545 ft 84 kts 230°
2026-04-19 22:40 40.88444 -81.47800 2745 ft 84 kts 224°
2026-04-19 22:40 40.88012 -81.48296 2971 ft 83 kts 221°
2026-04-19 22:40 40.87490 -81.48788 3015 ft 100 kts 216°
2026-04-19 22:40 40.86940 -81.49313 2991 ft 100 kts 222°
2026-04-19 22:41 40.86443 -81.49938 3055 ft 99 kts 227°
2026-04-19 22:41 40.85926 -81.50583 3052 ft 104 kts 224°
2026-04-19 22:41 40.85380 -81.51195 3105 ft 102 kts 221°
2026-04-19 22:41 40.84815 -81.51778 3048 ft 112 kts 218°
2026-04-19 22:42 40.84144 -81.52414 2902 ft 118 kts 220°
2026-04-19 22:42 40.83546 -81.53101 2871 ft 110 kts 224°
2026-04-19 22:42 40.83174 -81.53542 2832 ft 109 kts 223°
2026-04-19 22:42 40.82728 -81.54063 2808 ft 110 kts 223°
2026-04-19 22:43 40.82158 -81.54731 2859 ft 110 kts 223°
2026-04-19 22:43 40.81565 -81.55377 2891 ft 111 kts 218°
2026-04-19 22:43 40.81239 -81.55685 2915 ft 110 kts 217°
2026-04-19 22:43 40.80643 -81.56342 2920 ft 113 kts 223°
2026-04-19 22:44 40.80546 -81.56453 2909 ft 114 kts 222°